sat.trackr.live / text

‹ back to catalog

TIANQI-3

NORAD 44314 · 2019-032E

PAYLOAD ACTIVE UNKNOWN

§ Identity

Operator
Country
PRC
Launch date
2019-06-05
Launch site
YSLA
Launch vehicle
Mass (kg)
RCS (m²)

External: N2YO · Heavens-Above · Gunter

§ Orbital elements

Epoch: 2026-09-09T04:17:50.028864Z

Period
93.44 min
Inclination
44.9985°
Eccentricity
0.0008767
Mean motion
15.41104247 rev/d
Perigee alt
436.9 km
Apogee alt
448.8 km
Semi-major
6,821.0 km
B*
4.0188e-4
RAAN
232.5493°
Arg perigee
100.4127°
Mean anomaly
259.7750°
Rev number
40,102

§ Raw data

TIANQI-31 44314U 19032E   26252.17905126  .00016698  00000+0  40188-3 0  99922 44314  44.9985 232.5493 0008767 100.4127 259.7750 15.41104247401029

JSON: /api/v1/satellites/44314 · /tle

For live sub-satellite position, see the globe view (requires WebGL).

§ Visibility from observer

Set your observer location to see the next 7 days of passes ≥ 10°. The values pass through the URL so the page stays shareable.

No JS? Fill the form by hand. The geolocation button needs JavaScript.